owner,sensor,date,latitude,longitude,vertical_datum,wind_speed,wind_to_direction,wind_speed_of_gust,qcFlag 
TABS,ioos:station:wmo:42044:1,2011-11-01T00:00:00Z,26.1914,-97.0507,0.0,4.302557379,73.24935375,6.11,'11111222,11111222,11111222' 
TABS,ioos:station:wmo:42044:1,2011-11-01T00:30:00Z,26.1914,-97.0507,0.0,4.302754931,68.74222849,5.94,'11111222,11111222,11111222' 
TABS,ioos:station:wmo:42044:1,2011-11-01T01:00:00Z,26.1914,-97.0507,0.0,4.522521421,79.03751745,6.5,'11111222,11111222,11111222' 
TABS,ioos:station:wmo:42044:1,2011-11-01T01:30:00Z,26.1914,-97.0507,0.0,4.650870886,88.89076955,6.58,'11111222,11111222,11111222' 
TABS,ioos:station:wmo:42044:1,2011-11-01T02:00:00Z,26.1914,-97.0507,0.0,4.364916952,99.89431845,6.24,'11111222,11111222,11111222' 
TABS,ioos:station:wmo:42044:1,2011-11-01T02:30:00Z,26.1914,-97.0507,0.0,4.594529356,113.6083218,6.41,'11111222,11111222,11111222' 
TABS,ioos:station:wmo:42044:1,2011-11-01T03:00:00Z,26.1914,-97.0507,0.0,3.680489098,111.6861476,7.1,'11111222,11111222,11111222' 
TABS,ioos:station:wmo:42044:1,2011-11-01T03:30:00Z,26.1914,-97.0507,0.0,4.819979253,114.3852915,6.75,'11111222,11111222,11111222' 
TABS,ioos:station:wmo:42044:1,2011-11-01T04:00:00Z,26.1914,-97.0507,0.0,4.906668931,104.5180962,6.47,'11111222,11111222,11111222' 
TABS,ioos:station:wmo:42044:1,2011-11-01T04:30:00Z,26.1914,-97.0507,0.0,4.575816867,108.4749228,6.19,'11111222,11111222,11111222' 
TABS,ioos:station:wmo:42044:1,2011-11-01T05:00:00Z,26.1914,-97.0507,0.0,5.044640721,116.8701712,6.73,'11111222,11111222,11111222' 
TABS,ioos:station:wmo:42044:1,2011-11-01T05:30:00Z,26.1914,-97.0507,0.0,4.750515761,121.0468424,6.43,'11111222,11111222,11111222' 
TABS,ioos:station:wmo:42044:1,2011-11-01T06:00:00Z,26.1914,-97.0507,0.0,4.817686167,117.8419819,6.59,'11111222,11111222,11111222' 
TABS,ioos:station:wmo:42044:1,2011-11-01T06:30:00Z,26.1914,-97.0507,0.0,4.574461717,120.0404083,6.33,'11111222,11111222,11111222' 
TABS,ioos:station:wmo:42044:1,2011-11-01T07:00:00Z,26.1914,-97.0507,0.0,5.609001694,117.6161692,7.32,'11111222,11111222,11111222' 
TABS,ioos:station:wmo:42044:1,2011-11-01T07:30:00Z,26.1914,-97.0507,0.0,4.91415303,121.943935,6.55,'11111222,11111222,11111222' 
TABS,ioos:station:wmo:42044:1,2011-11-01T08:00:00Z,26.1914,-97.0507,0.0,4.810093554,127.227581,6.69,'11111222,11111222,11111222' 
TABS,ioos:station:wmo:42044:1,2011-11-01T08:30:00Z,26.1914,-97.0507,0.0,4.424319157,130.7842244,6.3,'11111222,11111222,11111222' 
TABS,ioos:station:wmo:42044:1,2011-11-01T09:00:00Z,26.1914,-97.0507,0.0,4.291037171,131.9776105,5.86,'11111222,11111222,11111222' 
TABS,ioos:station:wmo:42044:1,2011-11-01T09:30:00Z,26.1914,-97.0507,0.0,3.582680561,137.9417738,5.22,'11111222,11111222,11111222' 
TABS,ioos:station:wmo:42044:1,2011-11-01T10:00:00Z,26.1914,-97.0507,0.0,4.031042049,131.4804139,5.42,'11111222,11111222,11111222' 
TABS,ioos:station:wmo:42044:1,2011-11-01T10:30:00Z,26.1914,-97.0507,0.0,4.476114386,120.9202003,5.9,'11111222,11111222,11111222' 
TABS,ioos:station:wmo:42044:1,2011-11-01T11:00:00Z,26.1914,-97.0507,0.0,4.213597038,128.4477763,6.03,'11111222,11111222,11111222' 
TABS,ioos:station:wmo:42044:1,2011-11-01T11:30:00Z,26.1914,-97.0507,0.0,4.438434409,122.5804454,6.25,'11111222,11111222,11111222' 
TABS,ioos:station:wmo:42044:1,2011-11-01T12:00:00Z,26.1914,-97.0507,0.0,3.748973193,133.4871977,4.95,'11111222,11111222,11111222' 
TABS,ioos:station:wmo:42044:1,2011-11-01T12:30:00Z,26.1914,-97.0507,0.0,3.686583784,124.7249816,4.79,'11111222,11111222,11111222' 
TABS,ioos:station:wmo:42044:1,2011-11-01T13:00:00Z,26.1914,-97.0507,0.0,3.946656813,125.8249133,5.83,'11111222,11111222,11111222' 
TABS,ioos:station:wmo:42044:1,2011-11-01T13:30:00Z,26.1914,-97.0507,0.0,4.39118435,119.0169374,6.02,'11111222,11111222,11111222' 
TABS,ioos:station:wmo:42044:1,2011-11-01T14:00:00Z,26.1914,-97.0507,0.0,4.641400651,130.1062044,6.11,'11111222,11111222,11111222' 
TABS,ioos:station:wmo:42044:1,2011-11-01T14:30:00Z,26.1914,-97.0507,0.0,4.24340665,129.1662336,5.85,'11111222,11111222,11111222' 
TABS,ioos:station:wmo:42044:1,2011-11-01T15:00:00Z,26.1914,-97.0507,0.0,4.214558103,131.6338629,5.76,'11111222,11111222,11111222' 
TABS,ioos:station:wmo:42044:1,2011-11-01T15:30:00Z,26.1914,-97.0507,0.0,3.906430596,129.5993275,5.35,'11111222,11111222,11111222' 
TABS,ioos:station:wmo:42044:1,2011-11-01T16:00:00Z,26.1914,-97.0507,0.0,4.188078318,123.3109738,5.93,'11111222,11111222,11111222' 
TABS,ioos:station:wmo:42044:1,2011-11-01T16:30:00Z,26.1914,-97.0507,0.0,3.876248186,128.8217296,5.79,'11111222,11111222,11111222' 
TABS,ioos:station:wmo:42044:1,2011-11-01T17:00:00Z,26.1914,-97.0507,0.0,3.938641898,135.3089068,5.57,'11111222,11111222,11111222' 
TABS,ioos:station:wmo:42044:1,2011-11-01T17:30:00Z,26.1914,-97.0507,0.0,4.038328862,139.9222441,5.4,'11111222,11111222,11111222' 
TABS,ioos:station:wmo:42044:1,2011-11-01T18:00:00Z,26.1914,-97.0507,0.0,3.174917322,134.8727087,6.55,'11111222,11111222,11111222' 
TABS,ioos:station:wmo:42044:1,2011-11-01T18:30:00Z,26.1914,-97.0507,0.0,3.302196239,135.1230042,5.26,'11111222,11111222,11111222' 
TABS,ioos:station:wmo:42044:1,2011-11-01T19:00:00Z,26.1914,-97.0507,0.0,3.635725512,141.3651041,4.98,'11111222,11111222,11111222' 
TABS,ioos:station:wmo:42044:1,2011-11-01T19:30:00Z,26.1914,-97.0507,0.0,3.259601203,147.5290941,4.43,'11111222,11111222,11111222' 
TABS,ioos:station:wmo:42044:1,2011-11-01T20:00:00Z,26.1914,-97.0507,0.0,3.732773768,128.0368634,4.96,'11111222,11111222,11111222' 
TABS,ioos:station:wmo:42044:1,2011-11-01T20:30:00Z,26.1914,-97.0507,0.0,4.190047732,130.8389297,5.81,'11111222,11111222,11111222' 
TABS,ioos:station:wmo:42044:1,2011-11-01T21:00:00Z,26.1914,-97.0507,0.0,3.918073506,127.2211967,5.39,'11111222,11111222,11111222' 
TABS,ioos:station:wmo:42044:1,2011-11-01T21:30:00Z,26.1914,-97.0507,0.0,4.129503602,135.0003157,5.43,'11111222,11111222,11111222' 
TABS,ioos:station:wmo:42044:1,2011-11-01T22:00:00Z,26.1914,-97.0507,0.0,4.554953348,124.8068704,6.71,'11111222,11111222,11111222' 
TABS,ioos:station:wmo:42044:1,2011-11-01T22:30:00Z,26.1914,-97.0507,0.0,5.209222591,132.5107686,6.81,'11111222,11111222,11111222' 
TABS,ioos:station:wmo:42044:1,2011-11-01T23:00:00Z,26.1914,-97.0507,0.0,5.915344453,131.5051631,7.69,'11111222,11111222,11111222' 
TABS,ioos:station:wmo:42044:1,2011-11-01T23:30:00Z,26.1914,-97.0507,0.0,5.735259366,137.9685428,7.24,'11111222,11111222,11111222' 
TABS,ioos:station:wmo:42044:1,2011-11-02T00:00:00Z,26.1914,-97.0507,0.0,6.198790205,130.5514932,7.98,'11111222,11111222,11111222' 
TABS,ioos:station:wmo:42044:1,2011-11-02T00:30:00Z,26.1914,-97.0507,0.0,6.225255015,133.3079821,8.46,'11111222,11111222,11111222' 
TABS,ioos:station:wmo:42044:1,2011-11-02T01:00:00Z,26.1914,-97.0507,0.0,6.667563273,132.4474235,8.66,'11111222,11111222,11111222' 
TABS,ioos:station:wmo:42044:1,2011-11-02T01:30:00Z,26.1914,-97.0507,0.0,6.804145795,133.6902486,8.63,'11111222,11111222,11111222' 
TABS,ioos:station:wmo:42044:1,2011-11-02T02:00:00Z,26.1914,-97.0507,0.0,6.613115756,133.7136779,8.91,'11111222,11111222,11111222' 
TABS,ioos:station:wmo:42044:1,2011-11-02T02:30:00Z,26.1914,-97.0507,0.0,7.278001099,143.0989093,9.33,'11111222,11111222,11111222' 
TABS,ioos:station:wmo:42044:1,2011-11-02T03:00:00Z,26.1914,-97.0507,0.0,7.464274915,147.1405353,9.25,'11111222,11111222,11111222' 
TABS,ioos:station:wmo:42044:1,2011-11-02T03:30:00Z,26.1914,-97.0507,0.0,7.885334489,147.9024774,9.9,'11111222,11111222,11111222' 
TABS,ioos:station:wmo:42044:1,2011-11-02T04:00:00Z,26.1914,-97.0507,0.0,7.796569759,151.166947,9.6,'11111222,11111222,11111222' 
TABS,ioos:station:wmo:42044:1,2011-11-02T04:30:00Z,26.1914,-97.0507,0.0,7.536378441,152.5852,9.49,'11111222,11111222,11111222' 
TABS,ioos:station:wmo:42044:1,2011-11-02T05:00:00Z,26.1914,-97.0507,0.0,6.726343732,152.9399921,8.95,'11111222,11111222,11111222' 
TABS,ioos:station:wmo:42044:1,2011-11-02T05:30:00Z,26.1914,-97.0507,0.0,6.803881245,158.2614018,8.64,'11111222,11111222,11111222' 
TABS,ioos:station:wmo:42044:1,2011-11-02T06:00:00Z,26.1914,-97.0507,0.0,6.848430477,154.6700115,9.3,'11111222,11111222,11111222' 
TABS,ioos:station:wmo:42044:1,2011-11-02T06:30:00Z,26.1914,-97.0507,0.0,7.608054942,146.8532921,10.32,'11111222,11111222,11111222' 
TABS,ioos:station:wmo:42044:1,2011-11-02T07:00:00Z,26.1914,-97.0507,0.0,7.093786013,149.7845411,9.15,'11111222,11111222,11111222' 
TABS,ioos:station:wmo:42044:1,2011-11-02T07:30:00Z,26.1914,-97.0507,0.0,7.802646987,148.0416041,10.68,'11111222,11111222,11111222' 
TABS,ioos:station:wmo:42044:1,2011-11-02T08:00:00Z,26.1914,-97.0507,0.0,7.808008709,159.8478785,10.38,'11111222,11111222,11111222' 
TABS,ioos:station:wmo:42044:1,2011-11-02T08:30:00Z,26.1914,-97.0507,0.0,7.757609168,160.8879724,10.7,'11111222,11111222,11111222' 
TABS,ioos:station:wmo:42044:1,2011-11-02T09:00:00Z,26.1914,-97.0507,0.0,7.828588634,156.5133725,10.27,'11111222,11111222,11111222' 
TABS,ioos:station:wmo:42044:1,2011-11-02T09:30:00Z,26.1914,-97.0507,0.0,7.966912827,164.0449733,10.25,'11111222,11111222,11111222' 
TABS,ioos:station:wmo:42044:1,2011-11-02T10:00:00Z,26.1914,-97.0507,0.0,7.875341262,158.1583221,10.77,'11111222,11111222,11111222' 
TABS,ioos:station:wmo:42044:1,2011-11-02T10:30:00Z,26.1914,-97.0507,0.0,6.439914596,174.4755399,8.47,'11111222,11111222,11111222' 
TABS,ioos:station:wmo:42044:1,2011-11-02T11:00:00Z,26.1914,-97.0507,0.0,6.528713503,168.6042492,8.37,'11111222,11111222,11111222' 
TABS,ioos:station:wmo:42044:1,2011-11-02T11:30:00Z,26.1914,-97.0507,0.0,6.604619595,165.3538232,7.9,'11111222,11111222,11111222' 
TABS,ioos:station:wmo:42044:1,2011-11-02T12:00:00Z,26.1914,-97.0507,0.0,6.825657477,149.1516933,8.94,'11111222,11111222,11111222' 
TABS,ioos:station:wmo:42044:1,2011-11-02T12:30:00Z,26.1914,-97.0507,0.0,7.025667228,148.02948,9.4,'11111222,11111222,11111222' 
TABS,ioos:station:wmo:42044:1,2011-11-02T13:00:00Z,26.1914,-97.0507,0.0,6.637024936,146.1186783,8.68,'11111222,11111222,11111222' 
TABS,ioos:station:wmo:42044:1,2011-11-02T13:30:00Z,26.1914,-97.0507,0.0,6.992174197,148.6289851,8.66,'11111222,11111222,11111222' 
TABS,ioos:station:wmo:42044:1,2011-11-02T14:00:00Z,26.1914,-97.0507,0.0,6.642868356,145.7360883,8.45,'11111222,11111222,11111222' 
TABS,ioos:station:wmo:42044:1,2011-11-02T14:30:00Z,26.1914,-97.0507,0.0,6.537782499,147.112357,8.96,'11111222,11111222,11111222' 
TABS,ioos:station:wmo:42044:1,2011-11-02T15:00:00Z,26.1914,-97.0507,0.0,6.453309229,147.7878557,8.44,'11111222,11111222,11111222' 
TABS,ioos:station:wmo:42044:1,2011-11-02T15:30:00Z,26.1914,-97.0507,0.0,6.575971411,146.2860565,8.53,'11111222,11111222,11111222' 
TABS,ioos:station:wmo:42044:1,2011-11-02T16:00:00Z,26.1914,-97.0507,0.0,6.76125728,149.9085388,8.52,'11111222,11111222,11111222' 
TABS,ioos:station:wmo:42044:1,2011-11-02T16:30:00Z,26.1914,-97.0507,0.0,6.652616027,149.4648694,8.25,'11111222,11111222,11111222' 
TABS,ioos:station:wmo:42044:1,2011-11-02T17:00:00Z,26.1914,-97.0507,0.0,6.822939249,146.6595811,8.78,'11111222,11111222,11111222' 
TABS,ioos:station:wmo:42044:1,2011-11-02T17:30:00Z,26.1914,-97.0507,0.0,6.949143832,148.8951257,8.49,'11111222,11111222,11111222' 
TABS,ioos:station:wmo:42044:1,2011-11-02T18:00:00Z,26.1914,-97.0507,0.0,6.757728908,147.5095859,9.29,'11111222,11111222,11111222' 
TABS,ioos:station:wmo:42044:1,2011-11-02T18:30:00Z,26.1914,-97.0507,0.0,6.321471348,147.1398067,7.86,'11111222,11111222,11111222' 
TABS,ioos:station:wmo:42044:1,2011-11-02T19:00:00Z,26.1914,-97.0507,0.0,6.62721661,148.3248158,8.46,'11111222,11111222,11111222' 
TABS,ioos:station:wmo:42044:1,2011-11-02T19:30:00Z,26.1914,-97.0507,0.0,6.772894507,146.3806095,9.12,'11111222,11111222,11111222' 
TABS,ioos:station:wmo:42044:1,2011-11-02T20:00:00Z,26.1914,-97.0507,0.0,7.985643368,141.9679966,9.74,'11111222,11111222,11111222' 
TABS,ioos:station:wmo:42044:1,2011-11-02T20:30:00Z,26.1914,-97.0507,0.0,7.778129595,144.4711789,9.71,'11111222,11111222,11111222' 
TABS,ioos:station:wmo:42044:1,2011-11-02T21:00:00Z,26.1914,-97.0507,0.0,7.854915658,144.6915597,10.27,'11111222,11111222,11111222' 
TABS,ioos:station:wmo:42044:1,2011-11-02T21:30:00Z,26.1914,-97.0507,0.0,7.051248116,145.3411116,9.01,'11111222,11111222,11111222' 
TABS,ioos:station:wmo:42044:1,2011-11-02T22:00:00Z,26.1914,-97.0507,0.0,7.374455912,142.493289,9.44,'11111222,11111222,11111222' 
TABS,ioos:station:wmo:42044:1,2011-11-02T22:30:00Z,26.1914,-97.0507,0.0,7.965450395,142.0369936,9.6,'11111222,11111222,11111222' 
TABS,ioos:station:wmo:42044:1,2011-11-02T23:00:00Z,26.1914,-97.0507,0.0,7.075231445,142.0613931,8.73,'11111222,11111222,11111222' 
TABS,ioos:station:wmo:42044:1,2011-11-02T23:30:00Z,26.1914,-97.0507,0.0,6.613176241,140.4609639,8.39,'11111222,11111222,11111222' 
TABS,ioos:station:wmo:42044:1,2011-11-03T00:00:00Z,26.1914,-97.0507,0.0,6.111243736,139.9786594,7.65,'11111222,11111222,11111222' 
TABS,ioos:station:wmo:42044:1,2011-11-03T00:30:00Z,26.1914,-97.0507,0.0,5.722805256,142.1692201,7.47,'11111222,11111222,11111222' 
TABS,ioos:station:wmo:42044:1,2011-11-03T01:00:00Z,26.1914,-97.0507,0.0,5.297405025,144.4500427,6.68,'11111222,11111222,11111222' 
TABS,ioos:station:wmo:42044:1,2011-11-03T01:30:00Z,26.1914,-97.0507,0.0,5.305402906,141.8127451,7.1,'11111222,11111222,11111222' 
TABS,ioos:station:wmo:42044:1,2011-11-03T02:00:00Z,26.1914,-97.0507,0.0,6.020298996,140.1216202,7.31,'11111222,11111222,11111222' 
TABS,ioos:station:wmo:42044:1,2011-11-03T02:30:00Z,26.1914,-97.0507,0.0,5.854271944,137.7002866,7.44,'11111222,11111222,11111222' 
TABS,ioos:station:wmo:42044:1,2011-11-03T03:00:00Z,26.1914,-97.0507,0.0,5.576253222,139.6553405,7.07,'11111222,11111222,11111222' 
TABS,ioos:station:wmo:42044:1,2011-11-03T03:30:00Z,26.1914,-97.0507,0.0,5.697236172,141.1991385,6.8,'11111222,11111222,11111222' 
TABS,ioos:station:wmo:42044:1,2011-11-03T04:00:00Z,26.1914,-97.0507,0.0,5.654042801,142.9074599,7.15,'11111222,11111222,11111222' 
TABS,ioos:station:wmo:42044:1,2011-11-03T04:30:00Z,26.1914,-97.0507,0.0,5.988271871,145.7529403,7.36,'11111222,11111222,11111222' 
TABS,ioos:station:wmo:42044:1,2011-11-03T05:00:00Z,26.1914,-97.0507,0.0,5.143277165,149.2466795,6.64,'11111222,11111222,11111222' 
TABS,ioos:station:wmo:42044:1,2011-11-03T05:30:00Z,26.1914,-97.0507,0.0,5.546927077,149.9222883,6.79,'11111222,11111222,11111222' 
TABS,ioos:station:wmo:42044:1,2011-11-03T06:00:00Z,26.1914,-97.0507,0.0,4.608253465,151.7668879,5.85,'11111222,11111222,11111222' 
TABS,ioos:station:wmo:42044:1,2011-11-03T06:30:00Z,26.1914,-97.0507,0.0,4.696083475,149.8316669,6.0,'11111222,11111222,11111222' 
TABS,ioos:station:wmo:42044:1,2011-11-03T07:00:00Z,26.1914,-97.0507,0.0,4.40655194,158.1505623,5.83,'11111222,11111222,11111222' 
TABS,ioos:station:wmo:42044:1,2011-11-03T07:30:00Z,26.1914,-97.0507,0.0,3.130495168,153.4352214,4.56,'11111222,11111222,11111222' 
TABS,ioos:station:wmo:42044:1,2011-11-03T08:00:00Z,26.1914,-97.0507,0.0,1.526433752,174.7378274,2.28,'11111222,11111222,11111222' 
TABS,ioos:station:wmo:42044:1,2011-11-03T08:30:00Z,26.1914,-97.0507,0.0,1.411559421,193.9379751,2.02,'11111222,11111222,11111222' 
TABS,ioos:station:wmo:42044:1,2011-11-03T09:00:00Z,26.1914,-97.0507,0.0,1.241933976,194.9315927,1.76,'11111222,11111222,11111222' 
TABS,ioos:station:wmo:42044:1,2011-11-03T09:30:00Z,26.1914,-97.0507,0.0,1.228006515,232.9435585,1.84,'11111222,11111222,11111222' 
TABS,ioos:station:wmo:42044:1,2011-11-03T10:00:00Z,26.1914,-97.0507,0.0,1.732887763,183.3084163,2.33,'11111222,11111222,11111222' 
TABS,ioos:station:wmo:42044:1,2011-11-03T10:30:00Z,26.1914,-97.0507,0.0,1.6,216.8700219,2.43,'11111222,11111222,11111222' 
TABS,ioos:station:wmo:42044:1,2011-11-03T11:00:00Z,26.1914,-97.0507,0.0,1.982826266,188.7024139,12.84,'11111222,11111222,11111222' 
TABS,ioos:station:wmo:42044:1,2011-11-03T11:30:00Z,26.1914,-97.0507,0.0,2.040612653,91.40444485,13.5,'11111222,11111222,11111222' 
TABS,ioos:station:wmo:42044:1,2011-11-03T12:00:00Z,26.1914,-97.0507,0.0,2.820567319,83.07614636,12.23,'11111222,11111222,11111222' 
TABS,ioos:station:wmo:42044:1,2011-11-03T12:30:00Z,26.1914,-97.0507,0.0,0.686585756,102.6197137,14.12,'11111222,11111222,11111222' 
TABS,ioos:station:wmo:42044:1,2011-11-03T13:00:00Z,26.1914,-97.0507,0.0,1.338431918,119.0549571,16.48,'11111222,11111222,11111222' 
TABS,ioos:station:wmo:42044:1,2011-11-03T13:30:00Z,26.1914,-97.0507,0.0,1.61523992,85.38323778,10.61,'11111222,11111222,11111222' 
TABS,ioos:station:wmo:42044:1,2011-11-03T14:00:00Z,26.1914,-97.0507,0.0,2.998166106,225.2703657,16.55,'11111222,11111222,11111222' 
TABS,ioos:station:wmo:42044:1,2011-11-03T14:30:00Z,26.1914,-97.0507,0.0,0.417851648,201.0376723,12.75,'11111222,11111222,11111222' 
TABS,ioos:station:wmo:42044:1,2011-11-03T15:00:00Z,26.1914,-97.0507,0.0,2.869442455,238.2486788,12.31,'11111222,11111222,11111222' 
TABS,ioos:station:wmo:42044:1,2011-11-03T15:30:00Z,26.1914,-97.0507,0.0,2.913846255,210.5255021,13.31,'11111222,11111222,11111222' 
TABS,ioos:station:wmo:42044:1,2011-11-03T16:00:00Z,26.1914,-97.0507,0.0,2.163908501,192.8161827,13.3,'11111222,11111222,11111222' 
TABS,ioos:station:wmo:42044:1,2011-11-03T16:30:00Z,26.1914,-97.0507,0.0,1.748885359,165.0899316,13.42,'11111222,11111222,11111222' 
TABS,ioos:station:wmo:42044:1,2011-11-03T17:00:00Z,26.1914,-97.0507,0.0,1.767766953,204.3904605,12.44,'11111222,11111222,11111222' 
TABS,ioos:station:wmo:42044:1,2011-11-03T17:30:00Z,26.1914,-97.0507,0.0,1.23239604,138.2895507,11.98,'11111222,11111222,11111222' 
TABS,ioos:station:wmo:42044:1,2011-11-03T18:00:00Z,26.1914,-97.0507,0.0,0.984073168,217.5687146,9.89,'11111222,11111222,11111222' 
TABS,ioos:station:wmo:42044:1,2011-11-03T18:30:00Z,26.1914,-97.0507,0.0,1.085771615,220.1435127,11.77,'11111222,11111222,11111222' 
TABS,ioos:station:wmo:42044:1,2011-11-03T19:00:00Z,26.1914,-97.0507,0.0,0.919238816,210.7501059,12.36,'11111222,11111222,11111222' 
TABS,ioos:station:wmo:42044:1,2011-11-03T19:30:00Z,26.1914,-97.0507,0.0,0.79906195,225.5071331,10.31,'11111222,11111222,11111222' 
TABS,ioos:station:wmo:42044:1,2011-11-03T20:00:00Z,26.1914,-97.0507,0.0,0.560089279,271.0230278,11.47,'11111222,11111222,11111222' 
TABS,ioos:station:wmo:42044:1,2011-11-03T20:30:00Z,26.1914,-97.0507,0.0,1.758408371,303.8707315,9.7,'11111222,11111222,11111222' 
TABS,ioos:station:wmo:42044:1,2011-11-03T21:00:00Z,26.1914,-97.0507,0.0,1.769547965,320.7332561,10.01,'11111222,11111222,11111222' 
TABS,ioos:station:wmo:42044:1,2011-11-03T21:30:00Z,26.1914,-97.0507,0.0,1.500133327,317.1609692,8.81,'11111222,11111222,11111222' 
TABS,ioos:station:wmo:42044:1,2011-11-03T22:00:00Z,26.1914,-97.0507,0.0,2.05915031,13.76605804,10.89,'11111222,11111222,11111222' 
TABS,ioos:station:wmo:42044:1,2011-11-03T22:30:00Z,26.1914,-97.0507,0.0,2.568890811,343.2578583,9.09,'11111222,11111222,11111222' 
TABS,ioos:station:wmo:42044:1,2011-11-03T23:00:00Z,26.1914,-97.0507,0.0,2.388325773,334.185824,9.61,'11111222,11111222,11111222' 
TABS,ioos:station:wmo:42044:1,2011-11-03T23:30:00Z,26.1914,-97.0507,0.0,2.867821473,347.5143512,10.08,'11111222,11111222,11111222' 
TABS,ioos:station:wmo:42044:1,2011-11-04T00:00:00Z,26.1914,-97.0507,0.0,2.348531456,355.1145984,9.79,'11111222,11111222,11111222' 
TABS,ioos:station:wmo:42044:1,2011-11-04T00:30:00Z,26.1914,-97.0507,0.0,3.396130151,347.0684294,8.85,'11111222,11111222,11111222' 
TABS,ioos:station:wmo:42044:1,2011-11-04T01:00:00Z,26.1914,-97.0507,0.0,3.647917214,345.3921652,10.73,'11111222,11111222,11111222' 
TABS,ioos:station:wmo:42044:1,2011-11-04T01:30:00Z,26.1914,-97.0507,0.0,3.835127117,335.5064352,9.94,'11111222,11111222,11111222' 
TABS,ioos:station:wmo:42044:1,2011-11-04T02:00:00Z,26.1914,-97.0507,0.0,4.373191055,351.0544286,9.71,'11111222,11111222,11111222' 
TABS,ioos:station:wmo:42044:1,2011-11-04T02:30:00Z,26.1914,-97.0507,0.0,4.404770142,348.7409037,9.34,'11111222,11111222,11111222' 
TABS,ioos:station:wmo:42044:1,2011-11-04T03:00:00Z,26.1914,-97.0507,0.0,4.337614552,352.4488078,9.61,'11111222,11111222,11111222' 
TABS,ioos:station:wmo:42044:1,2011-11-04T03:30:00Z,26.1914,-97.0507,0.0,4.264692251,350.0073984,9.37,'11111222,11111222,11111222' 
TABS,ioos:station:wmo:42044:1,2011-11-04T04:00:00Z,26.1914,-97.0507,0.0,4.871550061,348.8744099,9.56,'11111222,11111222,11111222' 
TABS,ioos:station:wmo:42044:1,2011-11-04T04:30:00Z,26.1914,-97.0507,0.0,4.764546148,7.840761068,9.75,'11111222,11111222,11111222' 
TABS,ioos:station:wmo:42044:1,2011-11-04T05:00:00Z,26.1914,-97.0507,0.0,5.01323249,357.9421484,9.38,'11111222,11111222,11111222' 
TABS,ioos:station:wmo:42044:1,2011-11-04T05:30:00Z,26.1914,-97.0507,0.0,4.743047544,357.9457628,9.63,'11111222,11111222,11111222' 
TABS,ioos:station:wmo:42044:1,2011-11-04T06:00:00Z,26.1914,-97.0507,0.0,4.941224545,1.275392712,9.67,'11111222,11111222,11111222' 
TABS,ioos:station:wmo:42044:1,2011-11-04T06:30:00Z,26.1914,-97.0507,0.0,4.953907549,11.17360165,8.78,'11111222,11111222,11111222' 
TABS,ioos:station:wmo:42044:1,2011-11-04T07:00:00Z,26.1914,-97.0507,0.0,4.425708983,9.100272005,8.25,'11111222,11111222,11111222' 
TABS,ioos:station:wmo:42044:1,2011-11-04T07:30:00Z,26.1914,-97.0507,0.0,4.620411237,13.64501235,8.38,'11111222,11111222,11111222' 
TABS,ioos:station:wmo:42044:1,2011-11-04T08:00:00Z,26.1914,-97.0507,0.0,4.711899829,18.0501665,8.24,'11111222,11111222,11111222' 
TABS,ioos:station:wmo:42044:1,2011-11-04T08:30:00Z,26.1914,-97.0507,0.0,4.698606176,9.802892452,9.27,'11111222,11111222,11111222' 
TABS,ioos:station:wmo:42044:1,2011-11-04T09:00:00Z,26.1914,-97.0507,0.0,4.771928331,18.70047832,8.55,'11111222,11111222,11111222' 
TABS,ioos:station:wmo:42044:1,2011-11-04T09:30:00Z,26.1914,-97.0507,0.0,4.963637779,21.75827814,8.25,'11111222,11111222,11111222' 
TABS,ioos:station:wmo:42044:1,2011-11-04T10:00:00Z,26.1914,-97.0507,0.0,4.667697505,11.74301572,8.09,'11111222,11111222,11111222' 
TABS,ioos:station:wmo:42044:1,2011-11-04T10:30:00Z,26.1914,-97.0507,0.0,5.188545075,20.18097279,8.45,'11111222,11111222,11111222' 
TABS,ioos:station:wmo:42044:1,2011-11-04T11:00:00Z,26.1914,-97.0507,0.0,5.325898985,21.36165032,9.06,'11111222,11111222,11111222' 
TABS,ioos:station:wmo:42044:1,2011-11-04T11:30:00Z,26.1914,-97.0507,0.0,5.41178344,32.7794679,8.57,'11111222,11111222,11111222' 
TABS,ioos:station:wmo:42044:1,2011-11-04T12:00:00Z,26.1914,-97.0507,0.0,4.737013827,25.37467197,8.64,'11111222,11111222,11111222' 
TABS,ioos:station:wmo:42044:1,2011-11-04T12:30:00Z,26.1914,-97.0507,0.0,4.805434424,31.20884966,7.76,'11111222,11111222,11111222' 
TABS,ioos:station:wmo:42044:1,2011-11-04T13:00:00Z,26.1914,-97.0507,0.0,4.865069373,33.00383127,8.39,'11111222,11111222,11111222' 
TABS,ioos:station:wmo:42044:1,2011-11-04T13:30:00Z,26.1914,-97.0507,0.0,4.800468727,30.41079969,9.03,'11111222,11111222,11111222' 
TABS,ioos:station:wmo:42044:1,2011-11-04T14:00:00Z,26.1914,-97.0507,0.0,5.650601738,39.18209,8.71,'11111222,11111222,11111222' 
TABS,ioos:station:wmo:42044:1,2011-11-04T14:30:00Z,26.1914,-97.0507,0.0,4.748526087,33.05392982,7.3,'11111222,11111222,11111222' 
TABS,ioos:station:wmo:42044:1,2011-11-04T15:00:00Z,26.1914,-97.0507,0.0,4.353940744,20.43257044,7.0,'11111222,11111222,11111222' 
TABS,ioos:station:wmo:42044:1,2011-11-04T15:30:00Z,26.1914,-97.0507,0.0,4.279556052,33.9497049,6.94,'11111222,11111222,11111222' 
TABS,ioos:station:wmo:42044:1,2011-11-04T16:00:00Z,26.1914,-97.0507,0.0,4.267551991,31.97663509,7.01,'11111222,11111222,11111222' 
TABS,ioos:station:wmo:42044:1,2011-11-04T16:30:00Z,26.1914,-97.0507,0.0,3.847076812,25.23256186,5.5,'11111222,11111222,11111222' 
TABS,ioos:station:wmo:42044:1,2011-11-04T17:00:00Z,26.1914,-97.0507,0.0,3.833131879,31.45053901,6.39,'11111222,11111222,11111222' 
TABS,ioos:station:wmo:42044:1,2011-11-04T17:30:00Z,26.1914,-97.0507,0.0,4.235150529,19.58986539,6.55,'11111222,11111222,11111222' 
TABS,ioos:station:wmo:42044:1,2011-11-04T18:00:00Z,26.1914,-97.0507,0.0,3.937219831,38.2958747,6.36,'11111222,11111222,11111222' 
TABS,ioos:station:wmo:42044:1,2011-11-04T18:30:00Z,26.1914,-97.0507,0.0,4.395918562,42.32598471,6.87,'11111222,11111222,11111222' 